{"data":{"norad_id":66836,"intl_designator":"2025-280R","name":"STARLINK-35838","alt_names":[],"object_type":"PAYLOAD","status":"ACTIVE","operator":null,"country":"US","launch_date":"2025-12-02","launch_site_code":"AFWTR","launch_vehicle":null,"mission":null,"orbit_class":"UNKNOWN","rcs_meters":null,"size_class":null,"mass_kg":null,"dimensions":null,"purposes":["comms"],"wikipedia_slug":null,"has_3d_model":false,"image_url":null,"decayed_at":null,"tle_current":{"epoch":"2026-09-20T12:46:50.935872Z","epoch_age_seconds":81292,"freshness":"FRESH","line1":"1 66836U 25280R   26263.53253398  .00003096  00000+0  26704-3 0  9992","line2":"2 66836  69.9994 203.0973 0003425 255.9308 104.1470 14.98347306 45266","mean_motion":14.98347306,"eccentricity":0.0003425,"inclination_deg":69.9994,"raan_deg":203.0973,"arg_perigee_deg":255.9308,"mean_anomaly_deg":104.147,"bstar":0.00026704,"rev_number":4526,"period_min":96.105889084169,"perigee_km":569.62195134648,"apogee_km":574.38279681772,"semimajor_km":6950.1393740821,"source":"CELESTRAK","updated_at":"2026-09-21T09:00:36.022596Z"}}}